QPF
0.00 0.00 0.00 0.00 0.00 0.00 0.00 0.00 0.00 0.00 0.00 0.00 0.00 0.00 0.00 0.00 0.00 0.00 0.00 0.00 0.01 0.00 0.00 0.00 0.00 0.00 0.00 0.00 0.00 0.00 0.00 0.00 0.00 0.00 0.00 0.00 0.00 0.00 0.00 0.00 0.00 0.00 0.00
0.00 0.00 0.00 0.00 0.00 0.00 0.00 0.00 0.00 0.00 0.00 0.00 0.00 0.00 0.00 0.00 0.00 0.00 0.00 0.00 0.00 0.00 0.00 0.00 0.00 0.00 0.00 0.00 0.00 0.00 0.00 0.00 0.00 0.00 0.00 0.00 0.00 0.00 0.00 0.00 0.00 0.00 0.00
0.00 0.00 0.00 0.00 0.00 0.00 0.00 0.00 0.00 0.00 0.00 0.00 0.00 0.00 0.00 0.00 0.00 0.00 0.00 0.00 0.00 0.00 0.00 0.00 0.00 0.00 0.00 0.00 0.00 0.00 0.00 0.00 0.00 0.00 0.00 0.00 0.00 0.00 0.00 0.00 0.00 0.00 0.00
0.00 0.00 0.00 0.00 0.00 0.00 0.00 0.00 0.00 0.00 0.00 0.00 0.00 0.00 0.00 0.00 0.00 0.00 0.00 0.00 0.00 0.00 0.00 0.00 0.00 0.00 0.00 0.00 0.00 0.00 0.00 0.00 0.00 0.00 0.00 0.00 0.00 0.00 0.00 0.00 0.00 0.00 0.00
0.00 0.00 0.00 0.00 0.00 0.00 0.00 0.00 0.00 0.00 0.00 0.00 0.00 0.00 0.00 0.00 0.00 0.00 0.00 0.00 0.00 0.00 0.00 0.00 0.00 0.00 0.00 0.00 0.00 0.00 0.00 0.00 0.00 0.00 0.00 0.00 0.00 0.00 0.00 0.00 0.00 0.00 0.00
0.00 0.00 0.00 0.00 0.00 0.00 0.00 0.00 0.00 0.00 0.00 0.00 0.00 0.00 0.00 0.00 0.00 0.00 0.00 0.00 0.00 0.00 0.00 0.00 0.00 0.00 0.00 0.00 0.00 0.00 0.00 0.00 0.00 0.00 0.00 0.00 0.00 0.00 0.00 0.00 0.00 0.00 0.00
0.00 0.00 0.00 0.00 0.00 0.00 0.00 0.00 0.00 0.00 0.00 0.00 0.00 0.00 0.00 0.00 0.00 0.00 0.00 0.00 0.00 0.00 0.00 0.00 0.00 0.00 0.00 0.00 0.00 0.00 0.00 0.00 0.00 0.00 0.00 0.00 0.00 0.00 0.00 0.00 0.00 0.00 0.00
0.00 0.00 0.00 0.00 0.00 0.00 0.00 0.00 0.00 0.00 0.00 0.00 0.00 0.00 0.00 0.00 0.00 0.00 0.00 0.00 0.00 0.00 0.00 0.00 0.00 0.00 0.00 0.00 0.00 0.00 0.00 0.00 0.01 0.00 0.00 0.00 0.00 0.00 0.00 0.00 0.00 0.00 0.00
0.00 0.00 0.00 0.00 0.00 0.00 0.00 0.00 0.00 0.00 0.00 0.00 0.00 0.00 0.00 0.00 0.00 0.00 0.00 0.00 0.00 0.00 0.00 0.00 0.00 0.00 0.00 0.00 0.00 0.00 0.00 0.00 0.01 0.00 0.00 0.00 0.00 0.00 0.00 0.00 0.00 0.00 0.00
0.00 0.00 0.00 0.00 0.00 0.00 0.00 0.00 0.00 0.00 0.00 0.00 0.00 0.00 0.00 0.00 0.00 0.00 0.00 0.00 0.00 0.00 0.00 0.00 0.00 0.00 0.00 0.00 0.00 0.00 0.00 0.00 0.01 0.00 0.00 0.00 0.00 0.00 0.00 0.00 0.00 0.00 0.00
0.00 0.00 0.00 0.00 0.00 0.00 0.00 0.00 0.00 0.00 0.00 0.00 0.00 0.00 0.00 0.00 0.00 0.00 0.00 0.00 0.00 0.00 0.00 0.00 0.00 0.00 0.00 0.00 0.00 0.00 0.00 0.00 0.00 0.00 0.00 0.00 0.00 0.00 0.00 0.00 0.00 0.00 0.00
0.00 0.00 0.00 0.00 0.00 0.00 0.00 0.00 0.00 0.00 0.00 0.00 0.00 0.00 0.00 0.00 0.00 0.00 0.00 0.00 0.00 0.00 0.00 0.00 0.00 0.00 0.00 0.00 0.00 0.00 0.00 0.00 0.00 0.00 0.00 0.00 0.00 0.00 0.00 0.00 0.00 0.00 0.00
0.00 0.00 0.00 0.00 0.00 0.00 0.00 0.00 0.00 0.00 0.00 0.00 0.00 0.00 0.00 0.00 0.00 0.00 0.00 0.00 0.00 0.00 0.00 0.00 0.00 0.00 0.00 0.00 0.00 0.00 0.00 0.00 0.00 0.00 0.00 0.00 0.00 0.00 0.00 0.00 0.00 0.00 0.00
0.00 0.00 0.00 0.00 0.00 0.00 0.00 0.00 0.00 0.00 0.00 0.00 0.00 0.00 0.00 0.00 0.00 0.00 0.00 0.00 0.00 0.00 0.00 0.00 0.00 0.00 0.00 0.00 0.00 0.00 0.00 0.00 0.00 0.00 0.00 0.00 0.00 0.00 0.00 0.00 0.00 0.00 0.00
0.00 0.00 0.00 0.00 0.00 0.00 0.00 0.00 0.00 0.00 0.00 0.00 0.00 0.00 0.00 0.00 0.00 0.00 0.00 0.00 0.00 0.00 0.00 0.00 0.00 0.00 0.00 0.00 0.00 0.00 0.00 0.00 0.00 0.00 0.00 0.00 0.00 0.00 0.00 0.00 0.00 0.00 0.00
0.00 0.00 0.00 0.00 0.00 0.00 0.00 0.00 0.00 0.00 0.00 0.00 0.00 0.00 0.00 0.00 0.00 0.00 0.00 0.00 0.00 0.00 0.00 0.00 0.00 0.00 0.00 0.00 0.00 0.00 0.00 0.00 0.00 0.00 0.00 0.00 0.00 0.00 0.00 0.00 0.00 0.00 0.00
0.01 0.00 0.00 0.00 0.00 0.00 0.00 0.00 0.00 0.00 0.00 0.00 0.00 0.00 0.00 0.00 0.00 0.00 0.00 0.00 0.00 0.00 0.00 0.00 0.00 0.00 0.00 0.00 0.00 0.00 0.00 0.00 0.00 0.00 0.00 0.00 0.00 0.00 0.00 0.00 0.00 0.00 0.00
0.01 0.01 0.01 0.00 0.00 0.00 0.00 0.00 0.00 0.00 0.00 0.00 0.00 0.00 0.00 0.00 0.00 0.00 0.00 0.00 0.00 0.00 0.00 0.00 0.00 0.00 0.00 0.00 0.00 0.00 0.00 0.00 0.00 0.00 0.00 0.00 0.00 0.00 0.00 0.00 0.00 0.00 0.00
0.00 0.00 0.00 0.00 0.00 0.00 0.00 0.00 0.00 0.00 0.00 0.00 0.00 0.00 0.00 0.00 0.00 0.00 0.00 0.00 0.00 0.00 0.00 0.00 0.00 0.00 0.00 0.00 0.00 0.00 0.00 0.00 0.00 0.00 0.00 0.00 0.00 0.00 0.00 0.00 0.00 0.00 0.00
0.00 0.00 0.00 0.00 0.00 0.00 0.00 0.00 0.00 0.00 0.00 0.00 0.00 0.00 0.00 0.00 0.00 0.00 0.00 0.00 0.00 0.00 0.00 0.00 0.00 0.00 0.00 0.00 0.00 0.00 0.00 0.00 0.00 0.00 0.00 0.00 0.00 0.00 0.00 0.00 0.00 0.00 0.00
0.00 0.00 0.00 0.00 0.00 0.00 0.00 0.00 0.00 0.00 0.00 0.00 0.00 0.00 0.00 0.00 0.00 0.00 0.00 0.00 0.00 0.00 0.00 0.00 0.00 0.00 0.00 0.00 0.00 0.00 0.00 0.00 0.00 0.00 0.00 0.00 0.00 0.00 0.00 0.00 0.00 0.00 0.00
0.00 0.00 0.00 0.00 0.00 0.00 0.00 0.00 0.00 0.00 0.00 0.00 0.00 0.00 0.00 0.00 0.00 0.00 0.00 0.00 0.00 0.00 0.00 0.00 0.00 0.00 0.00 0.00 0.00 0.00 0.00 0.00 0.00 0.00 0.00 0.00 0.00 0.00 0.00 0.00 0.00 0.00 0.00
0.02 0.01 0.00 0.00 0.00 0.00 0.00 0.00 0.00 0.00 0.00 0.00 0.00 0.00 0.00 0.00 0.00 0.00 0.00 0.00 0.00 0.00 0.00 0.00 0.00 0.00 0.00 0.00 0.00 0.00 0.00 0.00 0.00 0.00 0.00 0.00 0.00 0.00 0.00 0.00 0.00 0.00 0.00
0.01 0.02 0.02 0.01 0.01 0.01 0.00 0.00 0.00 0.00 0.00 0.00 0.00 0.00 0.00 0.00 0.00 0.00 0.00 0.00 0.00 0.00 0.00 0.00 0.00 0.00 0.00 0.00 0.00 0.00 0.00 0.00 0.00 0.00 0.00 0.00 0.00 0.00 0.00 0.00 0.00 0.00 0.00
0.01 0.02 0.02 0.02 0.02 0.01 0.00 0.00 0.00 0.00 0.00 0.00 0.00 0.00 0.00 0.00 0.00 0.00 0.00 0.00 0.00 0.00 0.00 0.00 0.00 0.00 0.00 0.00 0.00 0.00 0.00 0.00 0.00 0.00 0.00 0.00 0.00 0.00 0.00 0.00 0.00 0.00 0.00
0.01 0.01 0.02 0.02 0.03 0.02 0.02 0.01 0.00 0.00 0.00 0.00 0.00 0.00 0.00 0.00 0.00 0.00 0.00 0.00 0.00 0.00 0.00 0.00 0.00 0.00 0.00 0.00 0.00 0.00 0.00 0.00 0.00 0.00 0.00 0.00 0.00 0.00 0.00 0.00 0.00 0.00 0.00
MSLP
1015.95 1016.67 1017.31 1017.83 1018.15 1018.47 1018.80 1019.19 1019.09 1019.29 1019.47 1020.08 1020.49 1021.08 1021.36 1021.86 1022.04 1022.38 1022.70 1022.83 1022.90 1023.02 1023.26 1023.50 1023.47 1023.64 1023.78 1023.75 1023.75 1023.81 1023.73 1023.58 1023.46 1023.38 1023.33 1023.34 1023.24 1023.14 1022.89 1022.84 1022.50 1022.44 1022.08
1015.39 1016.19 1017.00 1017.54 1017.96 1018.28 1018.64 1018.96 1019.24 1019.51 1019.67 1020.25 1020.88 1021.41 1021.76 1022.12 1022.41 1022.76 1023.05 1023.41 1023.34 1023.52 1023.68 1023.84 1023.83 1023.90 1023.92 1024.10 1024.12 1024.14 1024.10 1023.88 1023.91 1023.85 1023.70 1023.63 1023.68 1023.59 1023.45 1023.24 1023.04 1022.79 1022.63
1015.08 1015.90 1016.75 1017.44 1017.75 1018.13 1018.52 1019.01 1019.37 1019.59 1020.04 1020.41 1021.11 1021.38 1021.93 1022.34 1022.71 1023.01 1023.32 1023.62 1023.82 1024.16 1024.09 1024.29 1024.28 1024.29 1024.29 1024.46 1024.34 1024.47 1024.46 1024.40 1024.34 1024.26 1024.08 1024.07 1023.90 1023.91 1023.80 1023.61 1023.48 1023.20 1022.94
1014.79 1015.81 1016.60 1017.23 1017.59 1018.03 1018.61 1019.22 1019.79 1020.12 1020.54 1021.07 1021.46 1021.79 1021.94 1022.28 1022.77 1023.08 1023.43 1023.84 1024.19 1024.64 1024.72 1024.75 1024.83 1024.78 1024.75 1024.73 1024.66 1024.63 1024.78 1024.80 1024.72 1024.62 1024.56 1024.35 1024.24 1024.16 1024.12 1024.16 1023.93 1023.75 1023.52
1014.67 1015.81 1016.54 1017.08 1017.50 1018.18 1018.71 1019.33 1019.97 1020.28 1020.85 1021.43 1021.93 1022.15 1022.47 1022.85 1023.11 1023.33 1023.77 1024.04 1024.38 1024.84 1025.15 1025.23 1025.48 1025.58 1025.50 1025.27 1025.02 1024.93 1024.99 1025.03 1025.09 1025.03 1024.90 1024.90 1024.73 1024.62 1024.55 1024.35 1024.14 1024.04 1023.76
1014.62 1015.67 1016.56 1017.08 1017.56 1018.39 1018.90 1019.43 1020.04 1020.51 1020.96 1021.43 1022.15 1022.74 1023.03 1023.19 1023.43 1023.87 1024.10 1024.20 1024.59 1024.79 1025.12 1025.39 1025.57 1025.80 1025.89 1025.91 1025.73 1025.45 1025.31 1025.23 1025.42 1025.41 1025.29 1025.06 1025.04 1024.86 1024.63 1024.66 1024.64 1024.34 1024.23
1014.67 1015.56 1016.41 1017.10 1017.63 1018.34 1018.83 1019.34 1019.99 1020.63 1021.23 1021.54 1022.47 1023.32 1023.65 1023.68 1023.90 1024.17 1024.29 1024.54 1024.59 1024.83 1025.06 1025.37 1025.56 1025.74 1025.90 1026.05 1026.16 1026.14 1025.83 1025.46 1025.52 1025.64 1025.64 1025.47 1025.19 1025.13 1025.03 1024.96 1025.00 1024.85 1024.46
1014.58 1015.40 1016.10 1017.09 1017.63 1018.27 1018.81 1019.15 1019.71 1020.64 1021.15 1021.40 1022.50 1023.31 1024.39 1024.50 1024.25 1024.35 1024.39 1024.46 1024.73 1024.80 1024.93 1025.10 1025.42 1025.88 1026.11 1026.23 1026.42 1026.37 1026.32 1025.81 1025.58 1025.86 1025.95 1025.74 1025.52 1025.45 1025.51 1025.42 1025.26 1025.02 1024.89
1014.44 1014.99 1015.91 1016.78 1017.50 1018.06 1018.61 1019.01 1019.47 1020.16 1020.86 1021.38 1021.71 1021.95 1023.62 1023.93 1024.36 1024.61 1024.57 1024.63 1024.82 1024.98 1025.09 1025.23 1025.33 1025.55 1026.03 1026.39 1026.57 1026.59 1026.44 1026.10 1025.71 1025.91 1026.09 1025.93 1025.67 1025.71 1025.65 1025.77 1025.75 1025.55 1025.41
1014.31 1014.79 1015.57 1016.37 1017.14 1017.67 1018.28 1018.73 1019.28 1019.88 1020.41 1020.99 1021.59 1021.25 1021.66 1022.04 1023.68 1025.08 1024.87 1024.77 1024.83 1025.04 1025.22 1025.35 1025.56 1025.77 1026.02 1026.45 1026.87 1026.84 1026.59 1026.25 1025.97 1026.05 1026.14 1026.14 1025.99 1026.00 1025.90 1026.12 1026.13 1025.96 1025.83
1014.19 1014.78 1015.29 1015.97 1016.75 1017.34 1017.86 1018.23 1018.84 1019.51 1020.03 1020.52 1021.02 1021.26 1021.78 1021.92 1022.16 1023.58 1024.75 1024.85 1024.93 1024.94 1024.98 1025.29 1025.50 1025.79 1025.97 1026.24 1026.72 1026.90 1026.65 1026.22 1026.05 1026.15 1026.36 1026.34 1026.32 1026.29 1026.35 1026.40 1026.47 1026.29 1026.46
1014.10 1014.63 1015.10 1015.69 1016.22 1016.92 1017.35 1017.85 1018.37 1019.03 1019.66 1020.03 1020.49 1020.72 1021.18 1021.78 1021.73 1022.49 1023.81 1024.53 1025.01 1025.11 1025.02 1025.15 1025.41 1025.74 1025.98 1026.36 1026.44 1026.57 1026.62 1026.46 1026.35 1026.49 1026.60 1026.65 1026.70 1026.71 1026.82 1026.74 1026.73 1026.75 1026.71
1013.84 1014.12 1014.77 1015.52 1016.11 1016.63 1017.07 1017.52 1018.06 1018.62 1019.28 1019.67 1020.17 1020.63 1020.57 1021.21 1021.13 1021.56 1022.62 1023.99 1024.61 1024.91 1025.14 1025.04 1025.07 1025.42 1025.81 1026.27 1026.66 1026.82 1026.71 1026.58 1026.60 1026.69 1027.04 1027.12 1027.08 1027.13 1027.05 1027.19 1027.12 1027.07 1027.33
1012.78 1013.63 1014.37 1015.19 1015.75 1016.27 1016.76 1017.27 1017.91 1018.25 1018.82 1019.14 1019.78 1020.19 1020.50 1020.71 1021.04 1021.13 1021.86 1022.88 1024.46 1024.60 1024.94 1025.10 1025.00 1025.11 1025.54 1026.11 1026.43 1026.66 1026.88 1027.00 1027.11 1026.98 1027.10 1027.43 1027.54 1027.51 1027.55 1027.56 1027.79 1027.78 1027.76
1012.22 1013.04 1013.75 1014.68 1015.36 1015.91 1016.41 1016.97 1017.52 1017.92 1018.38 1018.68 1019.06 1019.59 1019.97 1020.26 1020.59 1020.88 1021.17 1021.83 1022.76 1024.25 1024.70 1024.78 1024.94 1024.87 1025.34 1025.84 1026.28 1026.60 1026.71 1026.93 1027.19 1027.50 1027.71 1027.87 1028.10 1028.17 1028.12 1027.88 1028.14 1028.29 1028.13
1012.24 1012.59 1013.18 1013.94 1014.75 1015.39 1015.92 1016.46 1017.05 1017.48 1017.90 1018.28 1018.61 1019.04 1019.52 1019.82 1020.13 1020.49 1021.02 1021.39 1021.86 1022.71 1023.91 1024.01 1024.28 1024.53 1024.96 1025.54 1025.98 1026.40 1026.65 1026.89 1027.27 1027.63 1027.83 1028.04 1028.43 1028.63 1028.59 1028.51 1028.39 1028.60 1028.54
1011.78 1012.29 1012.47 1013.30 1014.05 1014.61 1015.12 1015.74 1016.34 1016.89 1017.23 1017.70 1018.01 1018.41 1018.91 1019.32 1019.75 1020.07 1020.53 1021.06 1021.58 1022.13 1022.94 1023.52 1023.80 1024.24 1025.08 1025.64 1025.98 1026.04 1026.24 1026.76 1027.11 1027.42 1027.93 1028.22 1028.35 1028.76 1028.80 1028.60 1028.72 1028.90 1028.89
1011.84 1011.64 1011.99 1012.68 1013.30 1013.79 1014.34 1014.87 1015.43 1015.99 1016.36 1016.78 1017.22 1017.57 1017.96 1018.63 1019.33 1019.67 1020.14 1020.71 1021.17 1021.58 1022.59 1023.36 1024.05 1024.56 1024.80 1025.59 1026.27 1026.51 1026.35 1026.44 1026.93 1026.84 1027.48 1027.91 1028.26 1028.47 1028.68 1029.00 1029.28 1029.36 1029.15
1011.43 1011.85 1011.90 1012.20 1012.66 1012.99 1013.75 1014.14 1014.49 1014.94 1015.34 1015.70 1016.19 1016.72 1017.06 1017.64 1018.34 1018.99 1019.49 1020.22 1020.69 1021.07 1021.83 1022.67 1023.75 1024.25 1024.98 1025.51 1026.31 1026.68 1026.87 1026.47 1026.62 1027.10 1027.45 1027.92 1028.26 1028.47 1028.66 1029.05 1029.14 1029.35 1029.41
1010.76 1011.08 1010.87 1011.87 1012.47 1012.80 1013.28 1013.78 1014.24 1014.34 1014.59 1014.94 1015.36 1015.94 1016.39 1016.99 1017.16 1017.75 1018.35 1019.03 1019.83 1020.72 1021.52 1022.38 1023.12 1023.90 1024.41 1025.17 1025.84 1026.42 1027.10 1027.18 1027.20 1027.04 1027.17 1027.64 1028.07 1028.29 1028.60 1029.09 1029.45 1029.44 1029.50
1009.63 1009.30 1010.64 1011.62 1012.29 1012.75 1013.00 1013.47 1013.84 1014.02 1014.14 1014.46 1014.78 1015.11 1015.72 1016.20 1016.67 1017.27 1017.88 1018.58 1019.16 1019.88 1020.64 1021.52 1022.51 1023.30 1023.93 1024.49 1024.98 1026.16 1026.85 1027.20 1027.29 1027.12 1027.58 1027.93 1028.21 1028.57 1028.83 1028.90 1029.24 1029.39 1029.42
1008.16 1009.08 1010.31 1010.69 1012.01 1012.12 1012.38 1012.90 1013.31 1013.32 1013.70 1014.34 1014.31 1014.62 1014.99 1015.65 1016.31 1016.50 1017.08 1017.76 1018.26 1019.14 1019.89 1020.71 1021.50 1022.26 1022.88 1023.56 1024.17 1025.23 1025.96 1027.09 1027.59 1027.19 1027.17 1027.96 1028.07 1028.29 1028.40 1028.88 1029.21 1029.28 1029.32
1008.15 1009.13 1009.01 1009.30 1011.05 1011.53 1011.78 1012.29 1012.59 1012.92 1013.59 1013.56 1014.12 1014.42 1014.76 1015.04 1015.53 1016.35 1016.42 1017.04 1017.82 1018.41 1018.47 1019.46 1020.67 1021.29 1022.17 1022.71 1023.70 1024.93 1024.95 1025.68 1026.23 1026.04 1026.83 1027.49 1027.97 1028.32 1027.87 1027.98 1028.51 1028.88 1028.88
1007.66 1008.24 1008.99 1009.02 1010.09 1010.91 1011.20 1011.43 1011.81 1012.29 1012.79 1013.30 1013.32 1013.53 1014.30 1014.60 1014.76 1015.48 1015.98 1016.77 1017.32 1017.77 1018.28 1018.78 1019.50 1020.43 1021.08 1021.95 1022.72 1023.04 1024.15 1025.33 1025.98 1026.10 1026.23 1027.12 1027.14 1027.48 1027.70 1027.81 1028.02 1028.47 1028.79
1007.59 1007.98 1008.81 1009.10 1009.75 1010.27 1010.71 1010.96 1011.50 1011.99 1012.27 1012.90 1013.28 1013.23 1013.95 1014.22 1013.96 1014.61 1015.52 1016.02 1016.78 1017.38 1017.57 1018.28 1019.03 1019.73 1020.51 1021.13 1022.17 1023.23 1023.93 1024.94 1025.64 1025.99 1026.00 1026.22 1027.01 1027.61 1027.77 1028.00 1028.21 1028.38 1028.54
1007.49 1008.04 1008.64 1008.83 1009.20 1009.64 1009.95 1010.46 1010.92 1011.68 1012.11 1012.45 1012.94 1013.37 1013.95 1014.43 1014.52 1014.57 1015.12 1015.32 1016.21 1017.11 1017.30 1018.44 1019.51 1019.74 1020.16 1021.06 1021.76 1022.24 1022.78 1023.84 1025.02 1025.71 1025.25 1025.81 1026.54 1027.09 1028.05 1027.46 1027.75 1028.01 1028.19
Thickness
5695 5692 5692 5692 5694 5695 5696 5696 5699 5699 5699 5696 5694 5691 5688 5684 5681 5678 5676 5675 5673 5672 5670 5669 5668 5666 5663 5661 5659 5656 5655 5654 5652 5650 5648 5645 5642 5640 5639 5635 5634 5630 5630
5694 5693 5690 5691 5691 5692 5693 5694 5694 5695 5695 5691 5688 5684 5680 5677 5674 5672 5670 5667 5667 5666 5666 5664 5664 5663 5661 5658 5656 5654 5652 5651 5648 5647 5645 5642 5638 5635 5633 5632 5629 5628 5625
5690 5690 5688 5687 5689 5689 5689 5689 5689 5690 5688 5686 5683 5680 5675 5672 5669 5667 5665 5663 5662 5660 5661 5659 5658 5659 5658 5655 5653 5651 5649 5647 5645 5643 5641 5638 5636 5633 5630 5628 5626 5625 5624
5687 5685 5685 5685 5685 5686 5685 5683 5683 5682 5681 5678 5676 5675 5672 5669 5665 5663 5660 5659 5657 5655 5654 5653 5652 5653 5653 5651 5650 5648 5645 5643 5642 5640 5638 5636 5633 5632 5628 5623 5621 5620 5619
5683 5679 5679 5680 5681 5680 5680 5679 5677 5677 5674 5671 5669 5669 5667 5664 5661 5659 5656 5655 5653 5652 5650 5649 5647 5645 5645 5645 5645 5644 5642 5640 5638 5636 5635 5631 5629 5627 5625 5624 5622 5618 5618
5677 5675 5673 5675 5675 5674 5674 5673 5671 5671 5669 5667 5665 5661 5659 5658 5657 5654 5652 5652 5650 5650 5648 5646 5645 5642 5640 5639 5638 5638 5637 5637 5634 5632 5630 5629 5627 5626 5626 5621 5618 5617 5614
5670 5670 5669 5668 5669 5668 5668 5669 5667 5664 5662 5662 5657 5651 5650 5652 5651 5649 5649 5648 5647 5646 5645 5643 5642 5640 5638 5636 5633 5631 5631 5632 5630 5627 5625 5624 5624 5622 5619 5618 5615 5613 5612
5665 5664 5666 5663 5663 5663 5663 5664 5663 5659 5657 5658 5651 5646 5636 5640 5644 5644 5644 5644 5643 5643 5641 5640 5638 5635 5633 5632 5629 5628 5625 5626 5626 5622 5619 5618 5618 5616 5613 5611 5611 5611 5608
5659 5662 5660 5658 5658 5658 5658 5658 5659 5657 5655 5653 5653 5653 5638 5636 5636 5638 5639 5640 5639 5638 5637 5636 5635 5632 5629 5626 5623 5622 5622 5622 5622 5618 5614 5614 5614 5612 5610 5605 5603 5602 5602
5654 5656 5656 5654 5653 5654 5653 5654 5654 5652 5651 5651 5648 5654 5653 5650 5635 5627 5632 5634 5635 5634 5632 5632 5630 5627 5625 5621 5616 5615 5615 5616 5615 5613 5610 5609 5607 5604 5603 5598 5597 5595 5595
5647 5647 5649 5650 5650 5649 5650 5652 5651 5649 5647 5648 5645 5646 5646 5646 5646 5634 5624 5626 5629 5629 5629 5627 5625 5623 5620 5617 5613 5610 5610 5611 5610 5608 5604 5602 5600 5598 5596 5593 5590 5589 5585
5641 5643 5643 5645 5645 5644 5645 5646 5647 5645 5643 5644 5643 5644 5643 5639 5642 5638 5627 5622 5620 5621 5623 5623 5621 5618 5615 5611 5609 5607 5605 5604 5602 5600 5597 5595 5593 5590 5587 5586 5584 5582 5580
5637 5641 5640 5638 5639 5639 5639 5639 5639 5639 5637 5639 5639 5638 5641 5638 5640 5639 5632 5621 5617 5617 5616 5618 5617 5614 5609 5605 5603 5599 5599 5598 5595 5592 5587 5585 5584 5583 5581 5577 5575 5574 5569
5638 5634 5633 5631 5632 5632 5632 5632 5632 5633 5633 5634 5633 5633 5633 5633 5634 5634 5631 5622 5611 5611 5610 5609 5611 5610 5606 5601 5598 5594 5591 5589 5585 5584 5582 5577 5576 5574 5572 5568 5564 5562 5561
5632 5631 5630 5627 5626 5624 5626 5626 5626 5627 5628 5629 5629 5629 5628 5629 5629 5628 5628 5625 5616 5604 5600 5602 5602 5603 5601 5596 5591 5589 5587 5583 5578 5573 5570 5567 5562 5560 5559 5558 5553 5550 5551
5620 5624 5625 5624 5621 5620 5620 5620 5619 5620 5621 5622 5622 5622 5623 5622 5623 5622 5619 5619 5616 5610 5599 5600 5598 5598 5593 5588 5584 5581 5577 5575 5569 5565 5561 5558 5552 5547 5545 5544 5544 5540 5540
5614 5614 5619 5618 5617 5617 5617 5616 5615 5614 5616 5615 5616 5616 5616 5616 5615 5614 5612 5610 5608 5605 5600 5597 5594 5590 5583 5579 5576 5575 5571 5567 5562 5557 5552 5547 5543 5537 5535 5535 5533 5530 5528
5603 5611 5613 5612 5613 5614 5613 5611 5611 5610 5612 5612 5611 5612 5612 5610 5607 5606 5605 5602 5600 5597 5591 5588 5581 5577 5575 5569 5564 5561 5559 5556 5552 5550 5544 5539 5534 5530 5525 5521 5518 5515 5515
5588 5593 5602 5606 5607 5608 5605 5606 5607 5608 5608 5609 5608 5607 5607 5605 5603 5600 5598 5593 5591 5589 5584 5580 5571 5568 5562 5558 5551 5546 5545 5545 5542 5536 5530 5526 5522 5519 5514 5511 5508 5504 5501
5580 5584 5596 5596 5596 5598 5594 5596 5594 5599 5603 5603 5603 5602 5600 5598 5600 5596 5594 5591 5585 5579 5574 5570 5563 5558 5554 5547 5540 5536 5529 5527 5525 5524 5521 5517 5512 5507 5502 5497 5493 5491 5488
5574 5588 5585 5581 5584 5585 5587 5587 5587 5589 5592 5593 5593 5595 5593 5591 5589 5587 5584 5579 5575 5571 5568 5562 5554 5546 5543 5538 5533 5523 5517 5512 5511 5511 5506 5503 5500 5494 5490 5487 5482 5480 5478
5580 5575 5575 5576 5568 5576 5580 5578 5577 5582 5579 5577 5583 5584 5585 5578 5576 5577 5576 5571 5569 5562 5559 5553 5546 5541 5536 5530 5524 5515 5507 5499 5494 5495 5493 5487 5485 5485 5482 5475 5470 5467 5467
5570 5564 5571 5576 5567 5568 5571 5571 5571 5569 5566 5572 5570 5571 5571 5571 5569 5565 5566 5563 5558 5555 5556 5549 5539 5533 5525 5519 5511 5500 5501 5493 5488 5487 5479 5473 5470 5466 5472 5468 5462 5457 5456
5562 5559 5558 5564 5562 5559 5560 5564 5564 5561 5558 5560 5563 5565 5561 5561 5562 5557 5556 5550 5547 5545 5541 5539 5533 5525 5519 5509 5502 5500 5491 5479 5472 5469 5469 5460 5462 5459 5458 5457 5452 5447 5442
5548 5550 5546 5547 5548 5549 5545 5549 5549 5550 5550 5548 5548 5553 5548 5548 5554 5551 5544 5540 5536 5532 5530 5526 5520 5514 5507 5500 5491 5483 5476 5468 5459 5456 5458 5456 5449 5445 5444 5442 5437 5431 5429
5537 5537 5535 5537 5536 5536 5533 5537 5538 5536 5538 5534 5535 5535 5532 5529 5530 5533 5531 5531 5522 5517 5517 5508 5500 5499 5495 5485 5478 5473 5470 5461 5449 5443 5450 5446 5440 5436 5429 5431 5427 5420 5417